This is the latest recevied weather packets stored in our database for station/object VK4CWL-13. If no packets are shown the sender has not sent any weather packets the latest 10 day(s).
| Time | Temp. | Humidity | Pressure | Rain* | Wind** | Luminosity | Snow |
|---|---|---|---|---|---|---|---|
| 1778293147 | 22.22° C | 35% | 1020 hPa | 0 mm | - | - | - |
| 1778292848 | 22.22° C | 35% | 1020.1 hPa | 0 mm | - | - | - |
| 1778292544 | 21.67° C | 36% | 1020.2 hPa | 0 mm | - | - | - |
| 1778292018 | 21.67° C | 36% | 1020.4 hPa | 0 mm | - | - | - |
| 1778291715 | 21.67° C | 36% | 1020.4 hPa | 0 mm | - | - | - |
| 1778291413 | 21.67° C | 37% | 1020.4 hPa | 0 mm | - | - | - |
| 1778291111 | 21.11° C | 37% | 1020.6 hPa | 0 mm | - | - | - |
| 1778290810 | 21.11° C | 38% | 1020.7 hPa | 0 mm | - | - | - |
| 1778290506 | 21.11° C | 37% | 1020.8 hPa | 0 mm | - | - | - |
| 1778290204 | 20.56° C | 38% | 1020.9 hPa | 0 mm | - | - | - |
| 1778289905 | 20.56° C | 38% | 1021 hPa | 0 mm | - | - | - |
| 1778289603 | 20.56° C | 38% | 1021 hPa | 0 mm | - | - | - |
| 1778289488 | 20.56° C | 38% | 1021.2 hPa | 0 mm | - | - | - |
| 1778289185 | 20.56° C | 39% | 1021.2 hPa | 0 mm | - | - | - |
| 1778288883 | 20.56° C | 38% | 1021.4 hPa | 0 mm | - | - | - |
| 1778288582 | 20.56° C | 39% | 1021.4 hPa | 0 mm | - | - | - |
| 1778288281 | 20° C | 39% | 1021.6 hPa | 0 mm | - | - | - |
| 1778287976 | 20° C | 39% | 1021.6 hPa | 0 mm | - | - | - |
| 1778287674 | 20° C | 39% | 1021.7 hPa | 0 mm | - | - | - |
| 1778287373 | 19.44° C | 39% | 1021.7 hPa | 0 mm | - | - | - |
| 1778287072 | 20° C | 40% | 1021.9 hPa | 0 mm | - | - | - |
| 1778286767 | 19.44° C | 40% | 1021.9 hPa | 0 mm | - | - | - |
| 1778286465 | 19.44° C | 40% | 1022.2 hPa | 0 mm | - | - | - |
| 1778286175 | 19.44° C | 40% | 1021.9 hPa | 0 mm | - | - | - |
| 1778286000 | 19.44° C | 41% | 1022.1 hPa | 0 mm | - | - | - |
* Rain since midnight (hover to see other rain measurements)
** Current wind speed in m/s (hover to see current wind gust speed)